Temperature
17 17 17 17 17 17 17 17 17 17 17 17 17 17 16 16 16 16 16 16 16 16 16 16 15 15 15 15 15 15 15 15 15 15 15 15 15 15 15 15 14 14 14
17 17 17 17 17 17 17 17 17 17 17 17 17 16 16 16 16 16 16 16 16 16 16 16 15 15 15 15 15 15 15 15 15 15 15 15 15 14 14 14 14 14 14
17 17 17 17 17 17 17 17 17 17 17 16 16 16 16 16 16 16 15 15 15 15 15 15 15 15 15 15 15 15 15 15 15 14 14 14 14 14 14 14 14 14 14
17 17 17 17 17 16 16 17 17 17 16 16 16 16 16 16 15 15 15 15 15 15 15 15 15 15 15 15 14 14 14 14 14 14 14 14 14 14 14 14 14 14 14
17 17 17 17 17 16 16 16 16 16 16 16 16 16 16 16 15 15 15 15 15 15 15 15 15 15 15 14 14 14 14 14 14 14 14 14 14 14 14 14 14 14 14
17 17 17 17 17 16 16 16 16 16 16 16 16 16 16 15 16 15 15 15 15 15 15 15 15 15 14 14 14 14 14 14 14 14 14 14 14 13 13 13 13 13 13
17 16 16 16 16 16 16 16 16 16 16 16 16 16 15 15 15 15 15 15 15 15 15 15 15 14 14 14 14 14 14 14 14 14 13 13 13 13 13 13 13 13 13
16 16 16 16 16 16 16 16 16 16 16 16 15 15 15 15 15 15 15 15 15 15 15 15 14 14 14 14 14 14 13 14 13 13 13 13 13 13 13 13 13 13 13
16 16 16 16 16 16 16 16 15 15 15 15 15 15 15 15 15 15 15 15 15 15 15 14 14 14 14 14 13 13 13 13 13 13 13 13 13 13 13 13 13 13 13
15 15 15 15 15 15 15 15 15 15 15 15 14 15 15 15 15 15 15 15 15 15 14 14 14 14 13 13 13 13 13 13 13 13 13 13 13 12 12 12 12 12 12
15 15 15 15 15 15 15 15 15 15 14 14 14 14 14 14 14 15 15 15 14 14 14 14 14 13 13 13 13 13 13 13 13 13 13 13 13 12 12 12 12 12 12
14 14 15 15 15 15 14 14 14 14 14 14 14 14 14 14 14 14 14 14 14 14 14 14 13 13 13 13 13 13 13 13 12 12 12 12 12 12 12 12 12 12 12
14 14 14 14 14 14 14 14 14 14 14 14 14 14 14 14 14 14 14 14 14 14 14 13 13 13 13 12 12 12 12 12 12 12 12 12 12 12 12 12 12 11 11
13 14 14 14 14 14 14 14 14 14 14 14 13 14 14 14 14 14 14 14 13 13 13 13 13 13 12 12 12 12 12 12 12 12 12 12 11 11 11 11 11 11 11
13 13 13 14 14 14 14 14 14 13 13 13 13 13 13 13 13 13 13 13 13 13 13 13 13 12 12 12 12 12 12 12 12 12 12 11 11 11 11 11 11 11 11
13 13 13 13 13 13 13 13 13 13 13 13 13 13 13 13 13 13 13 13 13 13 13 13 12 12 12 12 11 11 11 11 11 11 11 11 11 11 11 11 11 11 11
13 13 13 13 13 13 13 13 13 13 13 13 13 13 13 13 13 13 13 13 13 13 12 12 12 12 12 11 11 11 11 11 11 11 11 11 11 11 11 11 11 11 11
12 13 13 12 12 13 13 13 13 13 13 13 13 13 13 13 13 13 13 13 13 12 12 12 12 12 11 11 11 11 11 11 11 11 11 11 11 11 11 11 11 11 11
12 12 12 12 12 12 12 12 12 12 12 12 12 12 13 13 13 13 13 13 12 12 12 12 11 11 11 11 11 11 11 10 10 10 10 10 11 11 11 11 11 10 10
12 12 12 12 12 12 12 12 12 12 12 12 12 12 12 12 13 12 12 12 12 12 11 11 11 11 11 11 10 10 10 10 10 10 10 10 10 10 10 10 10 10 10
11 11 11 11 12 11 11 11 12 12 12 12 12 12 12 12 12 12 12 12 12 12 11 11 11 11 10 10 10 10 10 10 10 10 10 10 10 10 10 10 10 10 10
10 11 11 11 11 11 11 11 11 11 11 11 11 11 12 12 12 12 12 12 12 11 11 11 11 11 10 10 10 9 9 9 9 9 9 9 9 10 10 10 9 9 9
10 10 10 10 11 11 11 11 11 11 11 11 11 11 11 11 11 11 11 11 11 11 11 11 11 10 10 10 10 9 9 9 9 9 9 9 9 9 9 9 9 9 9
9 10 10 10 10 10 10 10 10 10 10 10 11 11 11 11 11 11 11 11 11 11 11 11 10 10 10 9 9 9 9 9 8 8 8 8 8 9 8 8 8 8 8
9 9 9 9 9 9 10 10 10 10 10 10 10 10 10 10 10 11 11 11 11 11 10 10 10 10 9 9 9 9 9 9 8 8 8 8 8 8 8 8 8 8 8
8 8 9 9 9 9 9 9 9 10 10 10 10 10 10 10 10 10 10 10 10 10 10 10 10 9 9 9 9 9 8 8 8 8 8 8 8 8 8 7 7 7 7
Wind_Speed
4 8 14 14 14 15 15 15 15 15 15 15 15 15 15 15 15 16 16 16 15 16 16 16 16 17 17 17 18 18 18 18 17 17 17 17 17 17 17 16 16 15 17
7 11 15 15 15 15 15 15 15 14 14 15 15 15 15 15 15 16 16 16 15 15 15 16 16 16 16 16 17 17 17 17 17 17 17 16 17 17 16 16 16 15 17
9 11 14 15 15 15 16 15 15 14 14 15 15 15 15 15 15 15 15 15 15 15 15 15 15 15 15 16 15 15 16 16 16 16 15 14 15 16 16 16 16 16 16
9 11 13 15 15 15 15 15 15 15 14 14 14 14 14 14 14 15 14 14 14 14 14 14 14 14 14 15 15 15 15 15 15 14 13 13 13 15 16 16 15 15 15
8 11 12 15 15 16 16 15 15 15 14 14 14 14 13 14 14 14 14 14 14 14 14 13 13 13 14 14 14 15 16 16 15 14 13 13 13 14 14 14 14 14 14
7 10 13 15 15 15 15 15 14 14 14 14 14 13 13 13 13 13 13 13 13 13 13 12 12 13 13 13 14 15 15 15 14 13 12 12 12 13 14 13 13 14 14
7 9 13 15 15 14 13 14 14 14 14 13 13 13 13 13 13 13 12 12 12 12 12 11 12 12 12 13 14 15 15 14 13 12 11 11 12 13 13 12 12 13 12
8 8 10 13 14 14 13 12 13 13 14 13 13 13 13 13 12 12 12 12 11 11 11 10 11 11 12 13 13 14 14 13 12 11 11 11 12 12 12 12 11 12 11
8 7 7 10 11 13 13 12 12 12 13 13 13 13 13 13 12 11 11 11 11 11 10 10 10 10 11 12 12 13 13 13 12 10 10 10 11 11 11 11 11 11 11
6 6 6 7 9 10 11 12 11 11 12 13 13 13 13 12 12 11 11 11 10 10 10 10 9 9 10 11 11 12 12 12 10 9 9 10 10 10 10 10 10 10 10
5 4 5 5 6 8 9 10 11 10 11 12 12 12 11 10 10 10 10 10 10 10 10 9 9 9 9 10 10 11 10 9 9 8 8 9 9 9 9 9 8 8 8
5 4 4 5 5 7 7 7 8 8 9 9 10 11 9 9 9 9 10 10 10 10 9 9 8 8 7 8 8 9 9 9 8 7 8 8 8 8 8 8 7 7 6
5 4 3 3 4 5 5 6 6 6 7 7 8 9 9 8 8 8 8 8 9 8 7 7 6 6 6 7 7 7 8 8 7 6 7 7 7 7 6 6 6 5 5
5 3 3 3 3 4 4 4 5 6 6 6 8 10 9 7 6 7 6 7 7 7 6 5 5 5 6 6 7 7 7 7 7 6 6 7 6 5 5 5 4 4 4
4 3 3 3 2 3 4 3 3 4 6 7 7 9 10 7 6 6 6 7 7 7 6 5 5 5 5 5 6 7 7 7 7 6 6 6 5 5 4 3 3 2 2
4 4 3 3 2 3 3 3 3 4 5 7 7 8 10 9 8 7 5 6 6 7 8 7 6 5 4 5 5 6 6 6 6 7 6 5 4 4 3 3 2 1 1
4 4 3 4 3 3 3 4 3 4 5 5 6 7 9 9 10 8 6 5 6 8 8 6 6 5 4 4 3 4 5 5 6 6 6 5 4 4 3 2 2 1 1
3 4 4 4 3 3 3 4 3 4 4 4 6 7 8 9 10 9 6 5 8 8 7 5 4 4 3 3 2 2 3 4 5 5 5 5 5 3 3 3 2 2 2
3 4 3 3 3 4 3 3 3 4 4 4 5 6 8 9 10 9 6 6 8 7 5 5 3 4 4 3 2 1 1 2 3 4 4 4 5 4 3 2 2 3 3
2 3 3 2 3 3 2 1 2 2 3 3 4 5 7 8 9 8 7 7 8 5 4 4 4 3 3 3 2 1 0 1 2 3 3 4 4 4 4 3 2 2 3
1 1 2 3 2 2 2 2 3 3 3 3 3 5 7 8 9 8 6 7 6 6 6 6 4 4 3 3 3 1 2 1 1 2 2 3 3 3 3 3 3 2 1
1 1 1 3 3 3 3 2 2 3 3 3 3 3 6 7 8 7 7 6 7 6 7 6 5 3 2 3 3 2 0 2 2 2 2 2 2 2 2 2 3 3 2
2 2 2 3 2 2 2 1 0 0 0 1 2 2 4 7 7 7 8 7 6 7 7 7 7 6 4 3 3 3 3 4 2 2 2 2 2 1 2 2 2 3 3
3 3 2 2 2 2 2 2 2 2 3 3 3 4 4 6 7 8 8 7 7 6 7 8 7 5 6 4 2 2 2 3 2 2 2 2 2 2 2 2 2 2 2
3 3 2 2 3 2 2 3 3 3 3 2 3 4 4 4 6 7 8 7 7 6 7 7 7 6 5 5 4 2 1 1 1 2 3 2 2 2 2 3 3 2 2
3 2 2 2 3 3 3 3 4 5 4 3 4 5 5 4 4 5 7 7 7 6 7 7 7 8 6 5 4 3 3 3 3 2 3 3 3 3 2 2 2 3 3
Wind_Direction
156 158 150 144 137 133 128 123 120 116 112 111 110 110 109 108 107 106 104 104 102 101 99 97 95 94 94 93 92 90 89 88 86 84 85 86 86 85 82 79 76 74 77
155 153 149 146 141 138 132 128 124 119 116 114 112 113 112 111 110 107 104 103 103 103 102 100 97 96 95 95 94 92 90 90 88 85 82 83 85 85 83 82 80 79 78
140 146 145 144 142 140 136 132 129 124 121 118 116 115 115 114 112 111 108 106 104 102 103 103 101 98 97 96 95 94 91 91 90 86 81 78 81 83 82 81 80 79 78
140 142 144 142 140 140 138 136 132 129 125 123 121 119 117 117 116 114 112 109 106 103 103 103 102 100 98 98 95 95 93 94 91 84 78 78 82 84 83 82 81 80 79
134 139 139 140 138 138 138 138 135 132 130 127 125 123 121 121 120 118 115 112 110 106 104 103 103 102 101 100 97 95 96 95 90 83 81 80 83 86 85 84 83 81 80
128 134 140 138 137 136 139 139 138 136 135 132 130 128 127 124 122 121 119 116 113 110 108 105 104 105 104 102 99 98 99 96 89 85 85 85 87 89 89 87 85 83 81
126 130 140 142 140 136 136 142 142 140 140 138 136 134 131 128 124 124 124 122 119 115 112 110 108 108 104 103 101 99 100 98 93 90 89 89 91 92 91 89 86 84 83
130 130 140 143 144 141 139 139 144 145 144 143 141 139 136 133 129 129 130 129 125 122 119 116 113 112 106 105 104 102 101 99 97 96 93 94 96 94 92 89 87 85 83
123 123 132 144 148 148 145 145 144 149 151 148 146 143 141 139 137 134 136 136 133 130 126 123 119 113 110 107 104 103 103 102 101 101 98 97 100 98 94 90 87 84 83
119 122 127 138 144 148 150 150 148 148 153 152 148 144 146 146 143 140 138 140 139 138 134 131 127 120 111 106 105 105 105 104 102 100 103 105 105 102 97 92 90 87 85
118 130 137 135 141 143 148 155 153 151 151 153 151 146 144 144 145 144 144 144 143 142 141 138 133 125 112 106 108 109 105 110 109 105 109 111 110 106 100 95 91 90 88
151 151 151 151 150 149 151 154 159 155 152 155 158 153 150 149 153 153 151 150 149 145 144 143 136 123 115 111 110 111 111 112 112 114 118 119 117 111 104 96 90 89 87
166 161 156 153 153 152 147 154 159 159 157 161 163 163 156 151 152 153 150 151 151 149 144 140 128 124 125 120 116 118 121 117 119 120 127 129 128 120 111 102 93 87 88
154 162 163 155 159 154 148 158 166 165 165 167 168 162 156 151 154 159 160 162 159 156 147 140 134 134 133 131 129 129 126 122 124 121 127 136 137 131 123 112 102 87 87
161 169 172 161 165 161 149 155 165 167 170 173 170 169 165 160 164 166 168 168 168 162 155 148 145 140 134 131 131 133 133 132 130 127 126 136 144 146 141 130 118 101 94
175 179 173 168 173 167 165 167 173 175 177 174 176 180 174 172 168 167 168 167 169 169 165 158 154 146 139 135 130 136 138 137 134 133 131 135 148 156 165 169 152 130 92
186 185 185 185 174 178 180 171 165 170 174 173 177 183 180 177 172 165 166 172 175 169 160 151 147 139 133 131 131 141 143 145 142 142 141 141 145 159 178 188 195 205 235
179 183 190 195 188 193 197 182 167 166 165 171 176 179 178 176 172 165 166 175 172 162 154 148 151 144 143 139 143 155 144 147 153 153 151 153 152 157 177 205 227 243 265
182 185 191 191 192 196 199 191 174 166 166 168 170 174 180 174 171 165 163 167 166 157 155 162 160 154 153 149 153 155 156 162 166 159 156 168 170 171 177 200 226 250 269
205 188 185 194 199 195 182 177 170 158 166 166 171 179 180 176 172 166 160 163 164 157 163 162 162 152 154 155 141 116 213 218 183 175 180 178 177 182 185 189 199 249 272
331 241 192 196 207 189 181 189 197 197 194 190 184 184 179 176 175 167 167 165 166 173 173 164 157 153 154 138 115 65 346 315 236 224 195 181 185 194 194 198 196 205 263
287 307 247 214 212 205 197 206 214 211 203 198 189 188 183 176 174 174 168 174 175 174 170 167 154 158 166 161 145 134 248 307 293 263 234 212 219 191 192 205 201 203 221
310 302 295 268 237 225 199 165 144 229 246 197 203 208 202 185 179 178 178 174 176 178 181 180 173 167 174 196 175 159 173 220 263 279 249 233 220 226 226 213 212 230 226
281 281 295 302 285 251 196 179 186 213 227 225 209 212 212 192 183 182 183 178 180 184 184 186 179 177 170 186 207 209 184 160 176 250 280 261 242 232 239 232 225 234 233
287 282 286 297 305 286 228 204 205 228 237 233 210 205 210 201 189 186 186 183 185 188 187 185 182 178 182 185 188 184 170 156 163 189 250 274 282 257 250 239 226 222 242
304 295 301 298 289 288 260 229 219 224 231 224 223 214 212 213 204 196 191 190 192 189 188 187 188 186 189 189 189 183 178 179 200 193 226 249 259 265 259 246 221 222 229
Height
1526 1528 1529 1531 1532 1533 1534 1535 1535 1536 1537 1537 1538 1538 1539 1540 1540 1541 1541 1542 1542 1542 1543 1543 1543 1543 1543 1543 1543 1543 1543 1543 1543 1543 1543 1543 1543 1543 1543 1543 1542 1542 1542
1525 1527 1529 1531 1532 1533 1534 1535 1536 1537 1537 1538 1539 1539 1540 1541 1541 1542 1542 1543 1543 1544 1544 1544 1544 1544 1545 1545 1545 1545 1545 1545 1545 1545 1545 1545 1545 1545 1545 1544 1544 1544 1543
1525 1527 1529 1530 1532 1533 1534 1535 1536 1537 1538 1539 1539 1540 1541 1541 1542 1543 1543 1544 1544 1544 1545 1545 1545 1546 1546 1546 1546 1546 1546 1546 1546 1546 1546 1546 1546 1546 1546 1546 1545 1545 1545
1525 1526 1528 1530 1532 1533 1534 1535 1536 1537 1538 1539 1540 1541 1541 1542 1543 1543 1544 1544 1545 1545 1546 1546 1546 1547 1547 1547 1547 1547 1547 1547 1548 1548 1548 1548 1548 1548 1547 1547 1547 1546 1546
1525 1526 1528 1530 1532 1533 1534 1535 1537 1538 1539 1540 1540 1541 1542 1542 1543 1544 1545 1545 1545 1546 1546 1547 1547 1547 1548 1548 1548 1548 1548 1549 1549 1549 1549 1549 1549 1549 1548 1548 1548 1547 1547
1524 1526 1528 1530 1531 1533 1534 1535 1537 1538 1539 1540 1541 1541 1542 1543 1543 1544 1545 1545 1546 1547 1547 1548 1548 1548 1549 1549 1549 1549 1549 1550 1550 1550 1550 1550 1550 1550 1549 1549 1549 1548 1548
1524 1526 1528 1529 1531 1532 1534 1535 1537 1538 1539 1540 1541 1542 1543 1543 1544 1544 1545 1546 1546 1547 1548 1548 1549 1549 1549 1549 1550 1550 1550 1551 1551 1551 1551 1551 1551 1551 1550 1550 1550 1549 1549
1524 1526 1528 1529 1531 1532 1534 1535 1536 1538 1539 1540 1541 1542 1543 1543 1544 1545 1545 1546 1547 1547 1548 1549 1549 1550 1550 1550 1550 1551 1551 1551 1551 1552 1552 1552 1552 1551 1551 1551 1550 1550 1549
1524 1525 1527 1529 1530 1532 1533 1534 1536 1537 1539 1540 1541 1542 1543 1544 1544 1545 1545 1546 1547 1547 1548 1549 1550 1550 1550 1551 1551 1551 1552 1552 1552 1552 1552 1552 1552 1552 1551 1551 1551 1550 1550
1524 1525 1527 1528 1530 1531 1532 1534 1535 1537 1538 1540 1540 1541 1542 1543 1544 1545 1545 1546 1547 1548 1548 1549 1550 1550 1550 1551 1551 1552 1552 1552 1553 1553 1553 1553 1553 1552 1552 1552 1551 1551 1550
1523 1525 1526 1527 1528 1530 1531 1533 1535 1536 1538 1539 1540 1541 1542 1543 1543 1544 1545 1546 1547 1548 1548 1549 1550 1550 1550 1551 1552 1552 1552 1552 1553 1553 1553 1553 1553 1553 1552 1552 1551 1551 1550
1521 1523 1525 1526 1527 1528 1530 1532 1533 1535 1536 1538 1539 1540 1541 1542 1543 1544 1545 1546 1547 1547 1548 1549 1549 1550 1550 1550 1551 1552 1552 1552 1553 1553 1553 1553 1553 1552 1552 1552 1551 1551 1550
1520 1521 1523 1524 1525 1526 1528 1530 1531 1533 1535 1536 1537 1539 1540 1541 1542 1543 1544 1545 1546 1547 1547 1548 1549 1549 1549 1550 1551 1551 1552 1552 1552 1552 1552 1552 1552 1552 1552 1551 1551 1550 1550
1519 1520 1521 1523 1524 1525 1526 1528 1529 1531 1532 1534 1535 1537 1538 1539 1540 1541 1543 1544 1545 1546 1546 1547 1548 1548 1549 1550 1550 1551 1551 1551 1552 1552 1552 1552 1552 1552 1551 1551 1550 1550 1549
1518 1519 1520 1521 1522 1523 1524 1526 1527 1529 1530 1532 1533 1535 1536 1537 1538 1540 1541 1542 1544 1544 1545 1546 1547 1547 1548 1549 1549 1550 1550 1551 1551 1551 1551 1551 1551 1551 1550 1550 1549 1549 1548
1516 1517 1518 1519 1520 1521 1522 1524 1525 1526 1528 1529 1531 1532 1534 1535 1537 1538 1539 1541 1542 1543 1544 1545 1545 1546 1547 1548 1548 1549 1549 1549 1550 1550 1550 1550 1550 1549 1549 1549 1548 1548 1547
1514 1515 1516 1517 1518 1519 1520 1521 1523 1524 1525 1527 1528 1530 1531 1533 1534 1536 1537 1538 1539 1541 1542 1543 1544 1545 1545 1546 1547 1547 1548 1548 1548 1548 1548 1548 1548 1548 1547 1547 1547 1546 1545
1512 1513 1514 1515 1515 1516 1517 1519 1520 1521 1523 1524 1525 1527 1528 1530 1532 1533 1534 1536 1537 1538 1539 1540 1541 1542 1543 1544 1545 1546 1546 1546 1546 1546 1546 1546 1546 1546 1545 1545 1545 1544 1543
1510 1511 1511 1512 1513 1513 1514 1516 1517 1518 1520 1521 1522 1523 1525 1527 1528 1530 1531 1533 1534 1535 1537 1538 1539 1540 1540 1541 1543 1543 1544 1544 1544 1544 1544 1544 1544 1544 1543 1543 1542 1542 1541
1508 1509 1509 1509 1510 1511 1512 1513 1514 1515 1516 1517 1519 1520 1521 1523 1525 1527 1528 1530 1531 1532 1533 1535 1536 1537 1538 1539 1540 1541 1542 1542 1542 1542 1542 1542 1542 1541 1541 1540 1540 1539 1539
1505 1506 1506 1506 1507 1508 1508 1509 1510 1510 1512 1514 1515 1516 1518 1519 1521 1523 1524 1526 1528 1528 1530 1531 1533 1534 1535 1536 1537 1537 1538 1539 1539 1539 1539 1539 1539 1538 1538 1538 1537 1536 1536
1502 1502 1503 1503 1504 1504 1505 1506 1507 1508 1508 1510 1511 1512 1513 1515 1517 1519 1520 1522 1524 1525 1526 1527 1529 1530 1531 1532 1533 1534 1534 1536 1535 1535 1535 1535 1535 1535 1535 1535 1534 1533 1533
1498 1499 1499 1500 1501 1501 1502 1503 1504 1505 1505 1506 1507 1508 1509 1511 1513 1514 1516 1517 1519 1521 1521 1522 1524 1526 1526 1528 1530 1531 1531 1530 1531 1531 1531 1531 1531 1531 1531 1531 1530 1530 1529
1496 1496 1497 1497 1498 1498 1498 1499 1499 1500 1500 1500 1502 1504 1505 1507 1508 1510 1512 1513 1515 1516 1517 1518 1520 1522 1523 1524 1525 1527 1527 1527 1528 1527 1527 1527 1527 1527 1528 1527 1527 1526 1526
1493 1493 1493 1494 1494 1494 1495 1495 1496 1496 1497 1498 1499 1500 1501 1502 1504 1505 1507 1509 1510 1512 1513 1514 1516 1517 1519 1520 1521 1522 1522 1523 1524 1524 1522 1523 1523 1524 1524 1524 1523 1523 1522
1490 1490 1490 1490 1490 1490 1491 1491 1492 1492 1492 1493 1494 1495 1496 1497 1499 1500 1502 1504 1505 1507 1508 1509 1511 1512 1514 1516 1517 1518 1518 1519 1519 1520 1519 1518 1519 1519 1520 1519 1519 1519 1518